Regional Weather Roundup
Issued by NWS

Home | Current Version | Previous Version | Graphics & Text | Print | Product List | Glossary On
Versions: 1 2 3 4 5 6 7 8 9 10 11 12 13 14 15 16 17 18 19 20 21 22 23 24 25 26 27 28 29 30 31 32 33 34 35 36 37 38 39 40 41 42 43 44 45 46 47 48 49 50
000
ASUS44 KMEG 031510
RWRTN
TENNESSEE HOURLY STATE WEATHER ROUNDUP
NATIONAL WEATHER SERVICE MEMPHIS TN
1000 AM CDT THU SEP 03 2015

TNZ002-004-019-021-049-052-054-088>092-031600-
WEST TENNESSEE

CITY           SKY/WX    TMP DP  RH WIND       PRES   REMARKS
MEMPHIS INTL   MOSUNNY   84  70  62 CALM      30.04S
NWS MEMPHIS      N/A     83 N/A N/A MISG        N/A
JACKSON        SUNNY     84  73  69 N5        30.04S HX  90
DYERSBURG      SUNNY     82  73  74 NW3       30.04S
UNION CITY     SUNNY     82  73  74 CALM      30.03S
PARIS          SUNNY     82  68  61 CALM      30.05S
LEXINGTON      SUNNY     82  73  74 CALM      30.03S
$$

TNZ008-025-027-028-033-062-065-066-031600-
NORTH MIDDLE TENNESSEE

CITY           SKY/WX    TMP DP  RH WIND       PRES   REMARKS
NASHVILLE      MOSUNNY   87  67  51 NE5       30.05S HX  90
CLARKSVILLE    SUNNY     84  69  60 VRB3      30.04F
SMYRNA         SUNNY     87  70  57 CALM      30.05S HX  92
COOKEVILLE     SUNNY     82  72  69 CALM      30.06S
CROSSVILLE     SUNNY     82  64  54 NE7       30.11S
$$

TNZ061-075-076-078-094-096-097-031600-
SOUTH MIDDLE TENNESSEE

CITY           SKY/WX    TMP DP  RH WIND       PRES   REMARKS
FAYETTEVILLE   SUNNY     81  70  69 NE6       30.05S
TULLAHOMA      SUNNY     82  70  65 N3        30.07S
WINCHESTER     SUNNY     82  72  69 CALM      30.05F
MCMINNVILLE    SUNNY     82  73  74 CALM      30.07R
COLUMBIA       SUNNY     82  77  83 N3        30.04S HX  91
SHELBYVILLE    SUNNY     84  73  70 CALM      30.06R HX  91
$$

TNZ017-018-042-046-047-031600-
NORTHEAST TENNESSEE

CITY           SKY/WX    TMP DP  RH WIND       PRES   REMARKS
TRI CITIES     MOSUNNY   77  66  68 CALM      30.09R
ELIZABETHTON   SUNNY     79  64  61 SW5       30.09S
$$

TNZ012-013-036-069-073-074-031600-
CENTRAL EAST TENNESSEE

CITY           SKY/WX    TMP DP  RH WIND       PRES   REMARKS
KNOXVILLE      PTSUNNY   81  68  64 NE9       30.05R
OAK RIDGE      SUNNY     84  68  58 VRB6      30.06S
GATLINBURG     SUNNY     81  64  57 VRB6      30.05S
MORRISTOWN     SUNNY     82  66  57 E3        30.09R
$$

TNZ083-085-099-031600-
SOUTHEAST TENNESSEE

CITY           SKY/WX    TMP DP  RH WIND       PRES   REMARKS
CHATTANOOGA    CLOUDY    82  67  60 N7        30.04S
$$

SKY/WX REPORTED AS FAIR MEANS FEW OR NO CLOUDS BELOW
12 THOUSAND FEET.



USA.gov is the U.S. government's official web portal to all federal, state and local government web resources and services.